Monterey, CA

2:33 PM PST on January 19, 2018 (GMT -0800)
Monterey Peninsula

Weather History for KMRY - March, 2013

Change the Weather History Date:

Sunday, March 10, 2013

  Actual Average Record
Temperature  
Mean Temperature 47 °F 53 °F  
Max Temperature 55 °F 61 °F 74 °F (2005)
Min Temperature 39 °F 46 °F 36 °F (1999)
Degree Days  
Heating Degree Days 18    
Month to date heating degree days 138  
Since 1 July heating degree days 2404  
Cooling Degree Days 0    
Month to date cooling degree days 0  
Year to date cooling degree days 0  
Moisture  
Dew Point 41 °F    
Average Humidity 86    
Maximum Humidity 100    
Minimum Humidity 71    
Precipitation  
Precipitation 0.00 in - 0.22 in (1949)
Month to date precipitation 0.70  
Year to date precipitation 2.28  
Since 1 July precipitation 10.52  
Sea Level Pressure  
Sea Level Pressure 30.34 in    
Wind  
Wind Speed 4 mph (NE)    
Max Wind Speed 12 mph    
Max Gust Speed 16 mph    
Visibility 8 miles    
Events Fog    
T = Trace of Precipitation, MM = Missing Value Source: NWS Daily Summary

Daily Weather History Graph

Daily Weather History Graph

Search for Another Location

Airport or City:

Trip Planner

Search our weather history database for the weather conditions in past years. The results will help you decide how hot, cold, wet, or windy it might be!

Date:

Astronomy

Mar. 10, 2013 Rise Set
Actual Time 7:24 AM PDT 7:10 PM PDT
Civil Twilight 6:59 AM PDT 7:36 PM PDT
Nautical Twilight 6:29 AM PDT 8:06 PM PDT
Astronomical Twilight 5:59 AM PDT 8:36 PM PDT
Moon 6:27 AM PDT (3/10) 6:24 PM PDT (3/10)
Length of Visible Light 12h 37m
Length of Day
11h 45m
Waning Crescent, 1% of the Moon is Illuminated
Mar 10
Waning Crescent
Mar 11
New
Mar 19
First Quarter
Mar 27
Full
Apr 2
Last Quarter

Hourly Weather History & Observations

Time (PDT) Temp. Windchill Dew Point Humidity Pressure Visibility Wind Dir Wind Speed Gust Speed Precip Events Conditions
12:54 AM 45.0 °F - 39.0 °F 80% 30.36 in 10.0 mi Calm Calm - N/A   Clear
1:54 AM 44.1 °F 40.8 °F 39.0 °F 82% 30.36 in 10.0 mi WSW 5.8 mph - N/A   Clear
3:08 AM 46.4 °F 45.2 °F 39.2 °F 76% 30.32 in 10.0 mi South 3.5 mph - N/A   Partly Cloudy
3:54 AM 42.1 °F 39.2 °F 37.9 °F 85% 30.35 in 10.0 mi East 4.6 mph - N/A   Clear
4:36 AM 42.8 °F 38.6 °F 39.2 °F 87% 30.31 in 10.0 mi East 6.9 mph - N/A   Scattered Clouds
5:27 AM 42.8 °F 41.1 °F 39.2 °F 87% 30.31 in 10.0 mi East 3.5 mph - N/A   Scattered Clouds
5:54 AM 42.1 °F - 37.9 °F 85% 30.35 in 10.0 mi Calm Calm - N/A   Clear
6:48 AM 39.2 °F - 37.4 °F 93% 30.33 in 10.0 mi Calm Calm - N/A Fog Fog
6:54 AM 39.9 °F - 36.0 °F 86% 30.37 in 0.1 mi Calm Calm - N/A Fog Fog
7:01 AM 41.0 °F - 39.2 °F 93% 30.33 in 1.2 mi Calm Calm - N/A   Mostly Cloudy
7:04 AM 41.0 °F - 39.2 °F 93% 30.33 in 0.8 mi Calm Calm - N/A   Mist
7:26 AM 41.0 °F 37.1 °F 39.2 °F 93% 30.33 in 0.2 mi East 5.8 mph - N/A Fog Fog
7:34 AM 41.0 °F 38.0 °F 39.2 °F 93% 30.34 in 0.2 mi East 4.6 mph - N/A Fog Fog
7:54 AM 42.1 °F 39.2 °F 42.1 °F 100% 30.38 in 0.2 mi ENE 4.6 mph - N/A Fog Fog
8:19 AM 41.0 °F 36.4 °F 39.2 °F 93% 30.33 in 1.8 mi East 6.9 mph - N/A   Mostly Cloudy
8:22 AM 41.0 °F 36.4 °F 39.2 °F 93% 30.33 in 9.0 mi East 6.9 mph - N/A   Scattered Clouds
8:54 AM 44.1 °F 40.8 °F 41.0 °F 89% 30.38 in 10.0 mi East 5.8 mph - N/A   Clear
9:54 AM 48.9 °F - 44.1 °F 83% 30.39 in 10.0 mi West 5.8 mph - N/A   Clear
10:54 AM 51.1 °F - 44.1 °F 77% 30.39 in 10.0 mi NW 6.9 mph - N/A   Clear
11:54 AM 51.1 °F - 45.0 °F 80% 30.39 in 10.0 mi West 6.9 mph - N/A   Clear
12:54 PM 53.1 °F - 45.0 °F 74% 30.38 in 10.0 mi NW 5.8 mph - N/A   Clear
1:54 PM 54.0 °F - 46.9 °F 77% 30.36 in 9.0 mi NW 8.1 mph - N/A   Clear
2:54 PM 53.1 °F - 46.0 °F 77% 30.35 in 9.0 mi NW 10.4 mph - N/A   Clear
3:54 PM 54.0 °F - 46.9 °F 77% 30.34 in 9.0 mi NW 6.9 mph - N/A   Clear
4:54 PM 53.1 °F - 46.9 °F 80% 30.33 in 9.0 mi West 3.5 mph - N/A   Clear
5:54 PM 53.1 °F - 46.9 °F 80% 30.33 in 8.0 mi NW 3.5 mph - N/A   Clear
7:54 PM 50.0 °F - 44.1 °F 80% 30.32 in 10.0 mi SE 3.5 mph - N/A   Clear
8:54 PM 50.0 °F - 43.0 °F 77% 30.32 in 10.0 mi Calm Calm - N/A   Clear
10:54 PM 46.9 °F - 39.9 °F 77% 30.31 in 10.0 mi Calm Calm - N/A   Clear
11:54 PM 44.1 °F - 41.0 °F 89% 30.31 in 10.0 mi Calm Calm - N/A   Clear
12:54 AM 44.1 °F 41.5 °F 39.0 °F 82% 30.31 in 10.0 mi ESE 4.6 mph - N/A   Clear